Home   Weather   Monrovia   Past weeks

Flag for Liberia Past Weather in Monrovia, Liberia — Yesterday and Last 2 Weeks

75 °F

Passing clouds.

Feels Like: N/A
Forecast: 79 / 86 °F
Wind: No wind

Location: Roberts Field

Current Time: Oct 28, 2016 at 4:42:33 AM

Latest Report: Oct 28, 2016 at 4:00 AM

Visibility: N/A

Pressure: 29.83 "Hg

Humidity: N/A

Dew Point: N/A

Location of MonroviaLocation

Past Weather in Monrovia — Graph


Monrovia Temperature Yesterday

Maximum temperature yesterday: 86 °F (at 1:30 PM)
Minimum temperature yesterday: 75 °F (at 3:00 AM)
Average temperature yesterday: 80 °F

High & Low Weather Summary for the Past Weeks

High90 °F (Oct 16, 1:30 PM)100% (Oct 14, 7:00 PM)29.95 "Hg (Oct 14, 7:00 PM)
Low73 °F (Oct 17, 3:00 AM)63% (Oct 23, 3:30 PM)29.74 "Hg (Oct 25, 3:30 PM)
Average80 °F87%29.87 "Hg
* Reported Oct 13 3:00 AM — Oct 28 3:30 AM, Monrovia, Weather by CustomWeather, © 2016

Note: Actual official high and low records may vary slightly from our data, if they occured in-between our weather recording intervals... More about our weather records


Monrovia Weather History for the Previous 24 Hours

Scroll right to see more
Time TempWeatherWind HumidityBarometerVisibility
3:30 AM
Fri, Oct 28
77 °FPassing clouds.No wind94%29.83 "HgN/A
3:00 AM77 °FPassing clouds.No wind94%29.83 "HgN/A
2:30 AM77 °FPassing clouds.No wind94%29.83 "HgN/A
1:30 AM77 °FPassing clouds.No wind94%29.86 "HgN/A
1:00 AM77 °FPassing clouds.No wind94%29.86 "HgN/A
12:30 AM77 °FPassing clouds.No wind94%29.86 "HgN/A
12:00 AM77 °FPassing clouds.No wind94%29.89 "HgN/A
11:30 PM
Thu, Oct 27
77 °FPassing clouds.No wind94%29.89 "HgN/A
11:00 PM77 °FPassing clouds.No wind94%29.86 "HgN/A
10:30 PM77 °FPassing clouds.No wind94%29.86 "HgN/A
10:00 PM79 °FPassing clouds.No wind94%29.86 "HgN/A
9:30 PM79 °FPassing clouds.No wind94%29.86 "HgN/A
9:00 PM79 °FPassing clouds.No wind94%29.86 "HgN/A
8:30 PM79 °FPassing clouds.No wind94%29.83 "HgN/A
8:00 PM79 °FPartly cloudy.No wind94%29.83 "HgN/A
7:30 PM81 °FPartly cloudy.No wind84%29.83 "HgN/A
7:00 PM81 °FBroken clouds.No wind84%29.80 "HgN/A
6:30 PM81 °FBroken clouds.No wind89%29.77 "HgN/A
6:00 PM82 °FBroken clouds.6 mph84%29.77 "HgN/A
5:30 PM84 °FBroken clouds.6 mph79%29.77 "HgN/A
5:00 PM84 °FBroken clouds.9 mph79%29.77 "HgN/A
4:30 PM84 °FBroken clouds.6 mph79%29.77 "HgN/A
4:00 PM84 °FPartly sunny.6 mph79%29.77 "HgN/A
3:30 PM86 °FPartly sunny.No wind75%29.77 "HgN/A
3:00 PM86 °FPartly sunny.No wind75%29.77 "HgN/A
2:30 PM86 °FPartly sunny.No wind75%29.77 "HgN/A
2:00 PM84 °FPartly sunny.7 mph79%29.80 "HgN/A
1:30 PM86 °FPartly sunny.No wind75%29.80 "HgN/A
1:00 PM84 °FPartly sunny.No wind74%29.83 "HgN/A
12:30 PM84 °FPartly sunny.No wind79%29.83 "HgN/A
12:00 PM84 °FPartly sunny.No wind79%29.86 "HgN/A
11:30 AM82 °FPartly sunny.No wind84%29.89 "HgN/A
11:00 AM82 °FPartly sunny.No wind84%29.89 "HgN/A
10:30 AM82 °FPartly sunny.No wind84%29.89 "HgN/A
10:00 AM81 °FPartly sunny.No wind84%29.89 "HgN/A
9:30 AM79 °FScattered clouds.No wind89%29.89 "HgN/A
9:00 AM77 °FScattered clouds.No wind94%29.89 "Hg5 mi
8:30 AM77 °FScattered clouds.No wind94%29.89 "Hg4 mi
8:00 AM75 °FBroken clouds.No wind94%29.89 "Hg4 mi
7:30 AM77 °FBroken clouds.No wind94%29.86 "Hg4 mi
7:00 AM77 °FFog.No wind94%29.86 "Hg3 mi
6:30 AM77 °FPassing clouds.No wind94%29.83 "HgN/A
5:30 AM77 °FThunderstorms. Passing clouds.No wind94%29.83 "Hg6 mi
5:00 AM77 °FThunderstorms. Passing clouds.No wind94%29.80 "Hg6 mi
4:30 AM75 °FThunderstorms. Passing clouds.No wind100%29.80 "Hg6 mi
4:00 AM75 °FThunderstorms. Passing clouds.No wind100%29.80 "Hg6 mi
Weather by CustomWeather, © 2016

See weather overviewHow to use our weather pages